軌道要素
Epoch 2023 Feb. 25.0 TT = JDT 2460000.5
T 2021 Nov. 13.78634 TT Rudenko
q 3.7976212 (2000.0) P Q
n 0.05394381 Peri. 177.43134 +0.77452362 -0.61439281
a 6.9370525 Node 221.73682 +0.57624544 +0.78343063
e 0.4525598 Incl. 13.06148 +0.26087228 +0.09358378
P 18.3
>From 1005 observations 2021 June 27-2023 Mar. 19, mean residual 0".4.
|